Seattle, WA
on Sunday, March 3, 2013

Sunday
Previous Day Next Day
Daily Summary
 ActualAverageRecord
Temperature
Mean Temperature °F 45°F  
Max Temperature 52°F 52°F 69°F (1965)
Min Temperature 36°F 38°F 20°F (1989)
Degree Days
Heating Degree Days 21 20  
Month to date heating degree days 46 60  
Since 1 July heating degree days 3187 3314  
Cooling Degree Days 0 0  
Month to date cooling degree days 0 0  
Year to date cooling degree days 0 0  
Moisture
Dew Point 32°F   
Average Humidity 66    
Maximum Humidity 89    
Minimum Humidity 42    
Precipitation
Precipitation 0.00 in 0.12 in 2.08 in (1950)
Month to date precipitation 0.19 0.39  
Year to date precipitation 5.93 9.46  
Snow
Snow 0.00 in in 4.70 in (1960)
Month to date snowfall 0.0  
Since 1 July snowfall 0.6  
Snow Depth 0.00 in   
Wind
Wind Speed 6 mph   
Max Wind Speed 13 mph   
Max Gust Speed 16 mph   
Visibility 10 miles   
Events     

Key: T is trace of precipitation, MM is missing value
Source: NWS Daily Summary
Time(PST)TemperatureDew PointHumidity Pressure Visibility Wind DirectionWind SpeedGust SpeedPrecipitationEvents Conditions
12:53 AM 39.0°F 33.1°F 79% 30.23 in 10.0 miles SW 4.6 mph - N/A   Scattered Clouds
1:22 AM 39.2°F 33.8°F 81% 30.21 in 10.0 miles South 5.8 mph - N/A   Mostly Cloudy
1:53 AM 39.9°F 34.0°F 79% 30.25 in 10.0 miles SW 3.5 mph - N/A   Mostly Cloudy
2:53 AM 39.0°F 33.1°F 79% 30.25 in 10.0 miles South 5.8 mph - N/A   Scattered Clouds
3:53 AM 37.0°F 32.0°F 82% 30.25 in 10.0 miles SSE 6.9 mph - N/A   Clear
4:53 AM 36.0°F 32.0°F 86% 30.27 in 10.0 miles SE 8.1 mph - N/A   Clear
5:53 AM 37.0°F 32.0°F 82% 30.29 in 10.0 miles SE 6.9 mph - N/A   Partly Cloudy
6:53 AM 37.0°F 32.0°F 82% 30.30 in 10.0 miles ESE 9.2 mph - N/A   Scattered Clouds
7:53 AM 39.0°F 33.1°F 79% 30.30 in 10.0 miles SSE 6.9 mph - N/A   Partly Cloudy
8:53 AM 42.1°F 34.0°F 73% 30.31 in 10.0 miles South 8.1 mph - N/A   Partly Cloudy
9:53 AM 44.1°F 34.0°F 68% 30.30 in 10.0 miles SSW 3.5 mph - N/A   Partly Cloudy
10:53 AM 45.0°F 35.1°F 68% 30.30 in 10.0 miles SW 6.9 mph - N/A   Scattered Clouds
11:53 AM 46.0°F 34.0°F 63% 30.30 in 10.0 miles WSW 8.1 mph - N/A   Scattered Clouds
12:28 PM 46.4°F 32.0°F 57% 30.27 in 10.0 miles Variable 4.6 mph - N/A   Mostly Cloudy
12:53 PM 48.0°F 32.0°F 54% 30.30 in 10.0 miles West 3.5 mph - N/A   Mostly Cloudy
1:53 PM 50.0°F 28.0°F 43% 30.29 in 10.0 miles Variable 4.6 mph - N/A   Mostly Cloudy
2:53 PM 50.0°F 28.0°F 43% 30.30 in 10.0 miles Variable 4.6 mph - N/A   Mostly Cloudy
3:53 PM 50.0°F 30.0°F 46% 30.30 in 10.0 miles NNE 10.4 mph - N/A   Mostly Cloudy
4:53 PM 48.9°F 30.0°F 48% 30.30 in 10.0 miles NE 10.4 mph - N/A   Scattered Clouds
5:53 PM 46.0°F 28.0°F 50% 30.31 in 10.0 miles NE 6.9 mph - N/A   Scattered Clouds
6:53 PM 45.0°F 32.0°F 60% 30.32 in 10.0 miles ENE 8.1 mph - N/A   Scattered Clouds
7:53 PM 43.0°F 30.9°F 62% 30.32 in 10.0 miles NE 6.9 mph - N/A   Partly Cloudy
8:53 PM 43.0°F 30.0°F 60% 30.32 in 10.0 miles NE 5.8 mph - N/A   Partly Cloudy
9:53 PM 42.1°F 30.0°F 62% 30.32 in 10.0 miles ENE 3.5 mph - N/A   Partly Cloudy
10:53 PM 41.0°F 30.0°F 65% 30.32 in 10.0 miles NNE 3.5 mph - N/A   Clear
11:53 PM 39.0°F 28.9°F 67% 30.32 in 10.0 miles ENE 4.6 mph - N/A   Clear
Moon Phase
Mar. 03 Mar. 04 Mar. 11 Mar. 19 Mar. 27
Sunrise:06:45 AM (PST) Moon Rise:12:08 AM (PST)3/3
Sunset:05:57 PM (PST) Moon Set:09:37 AM (PST)3/3

Copyright © 2014 The Weather Underground, Inc.